When you browse on this site, cookies collect data to enhance your experience and personalize the content and advertising you see.
Visit our Privacy Policy to learn more. By continuing to use the site, you agree to this use of cookies and data.
  • en Suisse
  • Liste des pays
  • À 7 jours
  • Température de l'eau
  • Carte météo
  • Widgets météo
  • user-avatar
    Se connecter

    Météo par heure à Ajova-Siti

    Ce jour, 9 Décembre, Lundi

    Heure Température Précipitation Vent Pression Humidité
    00:00 +6°C° 0 mm 2 m/s 733 mmHg 95%
    01:00 +6°C° 0 mm 2 m/s 732 mmHg 95%
    02:00 +6°C° 0 mm 2 m/s 731 mmHg 96%
    03:00 +7°C° 0 mm 1 m/s 731 mmHg 97%
    04:00 +6°C° 0 mm 2 m/s 731 mmHg 97%
    05:00 +6°C° 0 mm 2 m/s 730 mmHg 97%
    06:00 +6°C° 0 mm 2 m/s 730 mmHg 96%
    07:00 +6°C° 0 mm 2 m/s 730 mmHg 95%
    08:00 +5°C° 0 mm 3 m/s 730 mmHg 94%
    09:00 +5°C° 0 mm 3 m/s 730 mmHg 94%
    10:00 +4°C° 0.1 mm 4 m/s 730 mmHg 88%
    11:00 +1°C° 0.1 mm 6 m/s 731 mmHg 82%
    12:00 -1°C° 0.1 mm 7 m/s 732 mmHg 75%
    13:00 -4°C° 0.1 mm 8 m/s 732 mmHg 74%
    14:00 -6°C° 0.1 mm 8 m/s 733 mmHg 72%
    15:00 -9°C° 0.1 mm 9 m/s 734 mmHg 70%
    16:00 -10°C° 0 mm 9 m/s 735 mmHg 69%
    17:00 -11°C° 0 mm 8 m/s 736 mmHg 68%
    18:00 -12°C° 0 mm 8 m/s 737 mmHg 67%
    19:00 -13°C° 0 mm 8 m/s 738 mmHg 66%
    20:00 -13°C° 0 mm 8 m/s 739 mmHg 64%
    21:00 -13°C° 0 mm 8 m/s 740 mmHg 62%
    22:00 -14°C° 0 mm 7 m/s 741 mmHg 61%
    23:00 -14°C° 0 mm 6 m/s 741 mmHg 59%

    Demain, 10 Décembre, Mardi

    Heure Température Précipitation Vent Pression Humidité
    00:00 -14°C° 0 mm 6 m/s 742 mmHg 57%
    01:00 -13°C° 0 mm 5 m/s 743 mmHg 55%
    02:00 -13°C° 0 mm 5 m/s 743 mmHg 53%
    03:00 -13°C° 0 mm 5 m/s 743 mmHg 51%
    04:00 -14°C° 0 mm 5 m/s 744 mmHg 50%
    05:00 -14°C° 0 mm 4 m/s 744 mmHg 49%
    06:00 -14°C° 0 mm 4 m/s 745 mmHg 48%
    07:00 -14°C° 0 mm 4 m/s 745 mmHg 50%
    08:00 -12°C° 0 mm 4 m/s 746 mmHg 51%
    09:00 -12°C° 0 mm 4 m/s 746 mmHg 53%
    10:00 -12°C° 0 mm 4 m/s 747 mmHg 52%
    11:00 -11°C° 0 mm 4 m/s 747 mmHg 52%
    12:00 -10°C° 0 mm 4 m/s 748 mmHg 51%
    13:00 -11°C° 0 mm 5 m/s 748 mmHg 51%
    14:00 -11°C° 0 mm 5 m/s 748 mmHg 51%
    15:00 -11°C° 0 mm 5 m/s 748 mmHg 51%
    16:00 -12°C° 0 mm 5 m/s 749 mmHg 52%
    17:00 -12°C° 0 mm 4 m/s 749 mmHg 52%
    18:00 -12°C° 0 mm 3 m/s 749 mmHg 53%
    19:00 -13°C° 0 mm 3 m/s 749 mmHg 54%
    20:00 -13°C° 0 mm 3 m/s 750 mmHg 56%
    21:00 -12°C° 0 mm 2 m/s 750 mmHg 57%
    22:00 -12°C° 0 mm 2 m/s 750 mmHg 58%
    23:00 -12°C° 0 mm 2 m/s 750 mmHg 59%

    Après-demain, 11 Décembre, Mercredi

    Heure Température Précipitation Vent Pression Humidité
    00:00 -12°C° 0 mm 2 m/s 749 mmHg 61%
    01:00 -12°C° 0 mm 2 m/s 749 mmHg 63%
    02:00 -12°C° 0 mm 2 m/s 749 mmHg 66%
    03:00 -12°C° 0 mm 3 m/s 749 mmHg 68%
    04:00 -10°C° 0.4 mm 2 m/s 749 mmHg 76%
    05:00 -10°C° 0.4 mm 2 m/s 749 mmHg 83%
    06:00 -9°C° 0.4 mm 1 m/s 750 mmHg 91%
    07:00 -8°C° 0.1 mm 1 m/s 750 mmHg 88%
    08:00 -8°C° 0.1 mm 1 m/s 751 mmHg 85%
    09:00 -7°C° 0.1 mm 1 m/s 751 mmHg 83%
    10:00 -8°C° 0 mm 2 m/s 752 mmHg 78%
    11:00 -7°C° 0 mm 2 m/s 752 mmHg 73%
    12:00 -7°C° 0 mm 2 m/s 752 mmHg 68%
    13:00 -6°C° 0 mm 2 m/s 752 mmHg 66%
    14:00 -6°C° 0 mm 2 m/s 752 mmHg 64%
    15:00 -6°C° 0 mm 2 m/s 752 mmHg 61%
    16:00 -6°C° 0 mm 2 m/s 753 mmHg 65%
    17:00 -7°C° 0 mm 2 m/s 753 mmHg 69%
    18:00 -9°C° 0 mm 3 m/s 753 mmHg 73%
    19:00 -9°C° 0 mm 3 m/s 753 mmHg 72%
    20:00 -9°C° 0 mm 3 m/s 753 mmHg 72%
    21:00 -10°C° 0 mm 4 m/s 752 mmHg 71%
    22:00 -10°C° 0 mm 4 m/s 752 mmHg 72%
    23:00 -10°C° 0 mm 4 m/s 752 mmHg 73%

    12 Décembre, Jeudi

    Heure Température Précipitation Vent Pression Humidité
    00:00 -10°C° 0 mm 4 m/s 752 mmHg 74%
    01:00 -9°C° 0 mm 4 m/s 752 mmHg 76%
    02:00 -9°C° 0 mm 4 m/s 751 mmHg 78%
    03:00 -9°C° 0 mm 4 m/s 751 mmHg 80%
    04:00 -10°C° 0 mm 5 m/s 750 mmHg 80%
    05:00 -8°C° 0 mm 5 m/s 750 mmHg 81%
    06:00 -8°C° 0 mm 5 m/s 749 mmHg 81%
    07:00 -7°C° 0 mm 5 m/s 749 mmHg 82%
    08:00 -6°C° 0 mm 5 m/s 749 mmHg 83%
    09:00 -5°C° 0 mm 5 m/s 748 mmHg 83%
    10:00 -3°C° 0 mm 6 m/s 748 mmHg 77%
    11:00 -1°C° 0 mm 6 m/s 747 mmHg 70%
    12:00 +2°C° 0 mm 6 m/s 747 mmHg 64%
    13:00 +2°C° 0 mm 5 m/s 746 mmHg 61%
    14:00 +3°C° 0 mm 5 m/s 745 mmHg 59%
    15:00 +4°C° 0 mm 4 m/s 745 mmHg 56%
    16:00 +3°C° 0 mm 3 m/s 745 mmHg 63%
    17:00 +2°C° 0 mm 3 m/s 745 mmHg 70%
    18:00 +2°C° 0 mm 2 m/s 745 mmHg 78%
    19:00 +2°C° 0 mm 2 m/s 744 mmHg 77%
    20:00 +1°C° 0 mm 3 m/s 744 mmHg 76%
    21:00 +1°C° 0 mm 3 m/s 744 mmHg 76%
    22:00 0°C° 0 mm 3 m/s 744 mmHg 78%
    23:00 +1°C° 0 mm 2 m/s 743 mmHg 80%

    13 Décembre, Vendredi

    Heure Température Précipitation Vent Pression Humidité
    00:00 -1°C° 0 mm 2 m/s 743 mmHg 83%
    01:00 -1°C° 0 mm 2 m/s 743 mmHg 83%
    02:00 -1°C° 0 mm 2 m/s 743 mmHg 84%
    03:00 -1°C° 0 mm 2 m/s 742 mmHg 85%
    04:00 -1°C° 0 mm 2 m/s 742 mmHg 86%
    05:00 0°C° 0 mm 1 m/s 742 mmHg 88%
    06:00 0°C° 0 mm 1 m/s 741 mmHg 89%
    07:00 +1°C° 0 mm 1 m/s 741 mmHg 88%
    08:00 -1°C° 0 mm 2 m/s 741 mmHg 86%
    09:00 +1°C° 0 mm 2 m/s 741 mmHg 84%
    10:00 +2°C° 0 mm 2 m/s 740 mmHg 81%
    11:00 +2°C° 0 mm 3 m/s 739 mmHg 78%
    12:00 +3°C° 0 mm 3 m/s 739 mmHg 75%
    13:00 +4°C° 0 mm 3 m/s 738 mmHg 77%
    14:00 +4°C° 0 mm 3 m/s 737 mmHg 78%
    15:00 +4°C° 0 mm 3 m/s 736 mmHg 79%
    16:00 +3°C° 0 mm 3 m/s 736 mmHg 82%
    17:00 +2°C° 0 mm 3 m/s 736 mmHg 85%
    18:00 +1°C° 0 mm 3 m/s 736 mmHg 88%
    19:00 +1°C° 0 mm 3 m/s 735 mmHg 89%
    20:00 +1°C° 0 mm 3 m/s 735 mmHg 90%
    21:00 +1°C° 0 mm 3 m/s 735 mmHg 91%
    22:00 0°C° 0 mm 4 m/s 734 mmHg 91%
    23:00 0°C° 0 mm 4 m/s 734 mmHg 91%

    14 Décembre, Samedi

    Heure Température Précipitation Vent Pression Humidité
    00:00 -1°C° 0 mm 4 m/s 733 mmHg 91%
    01:00 -1°C° 0 mm 4 m/s 733 mmHg 91%
    02:00 -2°C° 0 mm 5 m/s 733 mmHg 91%
    03:00 -2°C° 0 mm 5 m/s 733 mmHg 91%
    04:00 -4°C° 0 mm 6 m/s 733 mmHg 87%
    05:00 -5°C° 0 mm 6 m/s 734 mmHg 83%
    06:00 -7°C° 0 mm 7 m/s 734 mmHg 79%
    07:00 -8°C° 0 mm 7 m/s 735 mmHg 78%
    08:00 -9°C° 0 mm 7 m/s 735 mmHg 76%
    09:00 -12°C° 0 mm 7 m/s 736 mmHg 74%
    10:00 -11°C° 0 mm 7 m/s 736 mmHg 71%
    11:00 -11°C° 0 mm 7 m/s 737 mmHg 68%
    12:00 -11°C° 0 mm 7 m/s 737 mmHg 64%
    13:00 -11°C° 0 mm 7 m/s 737 mmHg 63%
    14:00 -10°C° 0 mm 6 m/s 737 mmHg 62%
    15:00 -10°C° 0 mm 6 m/s 737 mmHg 61%
    16:00 -10°C° 0 mm 5 m/s 738 mmHg 62%
    17:00 -11°C° 0 mm 5 m/s 738 mmHg 63%
    18:00 -12°C° 0 mm 5 m/s 738 mmHg 64%
    19:00 -12°C° 0 mm 5 m/s 739 mmHg 64%
    20:00 -12°C° 0 mm 5 m/s 740 mmHg 65%
    21:00 -12°C° 0 mm 5 m/s 740 mmHg 65%
    22:00 -13°C° 0 mm 5 m/s 741 mmHg 65%
    23:00 -12°C° 0 mm 4 m/s 741 mmHg 64%
    Voir plus